Location: Big Meadow
(36.7100°N, 118.8650°W)
Time: 05:49:12
(UTC-07:00)

Daily predictions for brighter satellites

Satellite Brightness Start Highest point End
(mag) Time Altitude Azimuth Time Altitude Azimuth Time Altitude Azimuth
CZ-4C R/B 4.5 03:25:40 27° NNE 03:26:58 28° NE 03:33:30 10° ESE
Cosmos 2369 Rocket 4.4 04:10:48 17° N 04:10:48 17° N 04:12:04 10° NNE
H-2A R/B 4.3 04:46:16 23° SSW 04:46:16 23° SSW 04:48:29 10° SSE
SJ 16-02 3.9 04:45:37 10° SE 04:48:44 19° E 04:51:53 10° NE
OAO 2 Rocket 3.6 04:51:42 62° ESE 04:51:42 62° ESE 04:55:56 10° E
Cosmos 1656 Rocket 3.6 04:51:02 76° S 04:51:28 84° ESE 04:57:11 10° NNE
CZ-4B DEB 4.5 04:51:56 10° NNE 04:57:25 66° ESE 05:02:52 10° S
NOSS 3-1 (C) 3.4 04:57:55 43° S 04:59:49 71° ESE 05:06:00 10° NE
Lacrosse 5 4.3 05:01:40 11° N 05:01:40 11° N 05:02:10 10° N
USA 229 DEB 3.7 05:00:36 56° WNW 05:01:08 57° NW 05:07:57 10° NNE
USA 229 3.6 05:00:40 56° WNW 05:01:13 58° NW 05:08:02 10° NNE
Tiangong 2 3.2 05:05:12 27° ENE 05:05:12 27° ENE 05:07:01 10° E
NOSS 3-1 (A) 3.9 05:01:34 19° S 05:05:27 54° ESE 05:11:29 10° NE
Cosmos 1943 Rocket 3.6 05:11:02 23° NNW 05:11:02 23° NNW 05:13:48 10° N
CZ-4B R/B 3.2 05:07:22 10° NNE 05:12:52 83° ESE 05:18:26 10° SSW
Nadezhda 1 Rocket 4.1 05:12:06 49° WSW 05:12:53 51° W 05:19:06 10° N
CZ-3 R/B 3.9 05:00:06 32° W 05:13:17 51° SSW 05:22:17 10° SE
USA 267 3.4 05:08:54 10° SSE 05:15:12 51° SW 05:16:51 42° W
CZ-4C R/B 2.9 05:10:58 22° NW 05:16:08 72° WSW 05:24:10 10° SSE
ADEOS II 3.2 05:11:28 10° N 05:14:20 27° NNW 05:14:20 27° NNW
Cosmos 44 3.4 05:17:44 53° SW 05:17:44 53° SW 05:21:58 10° SSE
Milstar 3 3.4 05:16:48 32° SW 05:18:58 41° S 05:26:11 10° ESE
Meteor PRIRODA 3.7 05:18:22 10° NNE 05:22:08 81° ESE 05:23:48 32° S
Okean O Rocket 1.6 05:18:14 10° N 05:22:26 58° WNW 05:22:26 58° WNW
Shenzhou-11 Module 2.8 05:26:13 46° SE 05:26:13 46° SE 05:28:30 10° ESE
CZ-2C R/B 4.3 05:23:47 10° SSE 05:28:28 62° ENE 05:33:09 10° N
Cosmos 372 Rocket 4.4 05:23:21 10° S 05:28:29 65° ESE 05:33:40 10° NNE
Cosmos 1758 Rocket 3.8 05:32:45 44° WNW 05:32:45 44° WNW 05:37:02 10° N
IRS-1C Rocket 4.0 05:29:40 10° N 05:34:56 70° WNW 05:40:09 10° SSW
Okean-O 3.9 05:32:02 10° NNE 05:36:15 42° E 05:40:27 10° S
Cosmos-2242 3.0 05:32:04 10° N 05:36:23 85° E 05:40:41 10° S
Cosmos 1125 Rocket 3.4 05:33:40 10° SSW 05:38:54 90° WNW 05:44:12 10° NNE
Cosmos 44 Rocket 3.8 05:38:36 36° WSW 05:38:59 36° WSW 05:43:29 10° S
Meteor 1-24 Rocket 4.1 05:39:22 10° S 05:45:23 76° E 05:51:21 10° NNE
Cosmos 2154 Rocket 4.3 05:41:46 10° NNW 05:47:40 42° W 05:53:30 10° SSW
COSMO-SKYMED 1 3.8 05:46:27 10° SE 05:50:34 43° ENE 05:54:41 10° N
MTI 4.1 05:48:00 10° SSE 05:51:14 69° ENE 05:54:29 10° N
Meteor 1-31 Rocket 2.9 05:49:10 10° N 05:52:49 45° WNW 05:56:26 10° SSW
Cosmos 2227 Rocket 4.0 05:49:49 10° N 05:54:52 32° ENE 05:59:52 10° ESE
SL-8 Rocket 4.0 05:53:51 10° N 06:00:11 79° W 06:06:29 10° S
Cosmos 1707 4.3 06:01:40 18° NW 06:01:40 18° NW 06:03:33 10° NNW
Feng Yun 1-1 Rocket 4.3 05:56:30 10° NNE 06:02:08 89° E 06:07:55 10° SSW
Cosmos 1842 Rocket 3.7 06:03:58 10° N 06:08:20 75° E 06:12:39 10° SSE
Cosmos 1048 Rocket 3.9 06:06:19 10° NNW 06:11:31 76° WSW 06:16:45 10° S
Cosmos 864 Rocket 4.4 06:10:33 10° N 06:16:46 83° W 06:22:54 10° S
GPS 2-04 Rocket1 3.6 06:16:07 15° WSW 06:18:38 30° SSW 06:21:52 10° SE
Cosmos 2219 3.3 06:15:27 10° NNW 06:20:58 54° WSW 06:26:25 10° S
Cosmos 1908 4.1 06:17:58 10° N 06:21:44 53° E 06:25:28 10° SSE
EO 1 Del DPAF 3.4 06:18:44 10° S 06:22:28 52° W 06:26:13 10° NNW
CZ-2C R/B 3.3 06:18:05 10° NNE 06:22:59 57° E 06:28:00 10° S
Cosmos 2084 Rocket 3.9 06:19:50 10° SSW 06:24:10 64° ESE 06:28:16 10° NE
Cosmos 2218 Rocket 4.1 06:19:01 10° NNW 06:25:08 59° W 06:31:18 10° S
SJ 16-02 2.1 06:23:10 10° SW 06:27:05 31° WNW 06:31:01 10° N
Okean 3 Rocket 4.5 06:24:12 10° S 06:28:34 55° E 06:32:56 10° NNE
Cosmos 158 Rocket 4.4 06:23:50 10° NNW 06:28:54 42° WSW 06:33:55 10° S
MINOTAUR R/B 4.1 06:28:49 10° NNW 06:31:28 70° WSW 06:34:05 10° SSE
Meteor 2-8 Rocket 4.4 06:25:46 10° SSW 06:31:52 73° W 06:38:01 10° N
Cosmos 2297 Rocket 3.0 06:27:22 10° NNW 06:32:55 54° ENE 06:38:24 10° SE
OAO 2 Rocket 3.8 06:30:44 10° W 06:35:34 49° SSW 06:40:19 10° ESE
Meteor 2-1 Rocket 4.3 06:30:42 10° NNW 06:36:32 65° W 06:42:16 10° S
SKYMED 2 3.8 06:34:22 10° S 06:38:34 49° W 06:42:47 10° NNW
Cosmos 2082 4.3 06:34:20 10° NNW 06:39:57 61° ENE 06:45:29 10° SE
Cosmos 1656 3.9 06:34:17 10° SSW 06:39:57 81° ESE 06:45:41 10° NNE
Tiangong 2 2.0 06:37:48 10° W 06:40:47 36° SSW 06:43:45 10° SE
Cosmos 1697 Rocket 3.7 06:36:17 10° S 06:41:45 54° ESE 06:47:16 10° NNE
ATLAS 2AS CENTAUR R/B 4.0 06:37:01 10° S 06:44:19 54° ESE 06:52:08 10° NE
Nadezhda 3 Rocket 4.1 06:38:01 10° S 06:44:21 88° W 06:50:41 10° N
